Location: Pforzheim
(48.8844°N, 8.6989°E)
Time: 10:49:39
(UTC+00:00)

Daily predictions for brighter satellites

Satellite Brightness Start Highest point End
(mag) Time Altitude Azimuth Time Altitude Azimuth Time Altitude Azimuth
NOSS 2-1 (D) 3.5 18:06:18 10° NW 18:09:59 76° NE 18:15:00 10° SE
BREEZE-M DEB (TANK) 3.0 18:07:48 10° W 18:10:14 84° N 18:14:58 10° E
Cosmos 1725 Rocket 4.3 18:04:32 10° SSW 18:10:41 77° W 18:16:55 10° N
Meteor 1-18 Rocket 4.4 18:04:55 10° N 18:10:54 83° E 18:16:44 10° SSE
SJ-6B 2.9 18:08:08 10° SE 18:11:36 45° ENE 18:15:03 10° N
Cosmos 2333 Rocket 3.4 18:08:12 10° SW 18:13:46 50° NW 18:19:24 10° NNE
SeaSat 1 2.9 18:08:58 10° NNE 18:13:52 67° WNW 18:18:44 10° SW
Iridium 4 Rocket 3.0 18:10:01 10° N 18:14:08 56° E 18:18:14 10° SSE
Meteor 1-4 Rocket 2.7 18:12:04 10° N 18:14:28 29° ENE 18:16:52 10° SE
SL-16 R/B 4.4 18:10:00 10° WSW 18:14:50 28° NW 18:19:41 10° NNE
Cosmos 1151 Rocket 3.5 18:10:43 10° NNW 18:14:57 65° W 18:19:09 10° S
Cosmos 1340 2.4 18:12:17 10° SSW 18:15:33 83° WNW 18:18:49 10° N
ATLAS CENTAUR R/B 2.9 18:14:18 10° SE 18:15:33 12° ESE 18:16:49 10° E
Cosmos 2369 Rocket 4.2 18:15:45 10° N 18:18:39 14° NNE 18:21:32 10° ENE
ARGOS Delta rocket 4.1 18:16:42 10° SE 18:21:33 49° ENE 18:26:09 10° N
Cosmos 1733 4.4 18:22:30 10° SE 18:24:53 18° E 18:27:17 10° NE
Cosmos 841 Rocket 4.3 18:20:52 10° SW 18:25:57 55° WNW 18:31:03 10° NNE
NOSS 0 Rocket 4.3 18:21:19 10° S 18:27:07 43° ESE 18:32:57 10° NE
Cosmos 1943 Rocket 2.7 18:22:01 10° NNW 18:27:15 42° NE 18:32:30 10° SE
USA 276 1.8 18:25:10 10° WNW 18:28:04 80° SSW 18:30:24 13° ESE
ACS3 Solar Sail 2.7 18:25:19 10° SE 18:30:55 33° ENE 18:36:32 10° N
Cosmos 1400 Rocket 2.7 18:27:23 10° NNW 18:31:13 83° WSW 18:34:59 10° S
Cosmos 2322 3.7 18:26:41 10° SSW 18:32:20 84° ESE 18:38:01 10° NNE
Cosmos 2233 Rocket 4.2 18:27:21 10° SSW 18:33:28 77° W 18:39:41 10° N
Cosmos 1066 Rocket 4.4 18:27:50 10° NNW 18:33:45 86° W 18:39:33 10° S
BlueWalker 3 2.9 18:30:36 10° WNW 18:34:08 40° SW 18:37:39 10° SSE
Cosmos 1726 2.2 18:33:17 10° SSW 18:36:00 53° WNW 18:38:45 10° N
Resurs 1-3 3.7 18:32:12 10° S 18:36:32 78° WSW 18:40:54 10° NNW
Terra 3.9 18:36:02 10° ENE 18:37:12 11° NE 18:38:21 10° NE
SAR-Lupe-2 4.4 18:41:03 10° S 18:44:31 51° WSW 18:48:03 10° NNW
Cosmos 1315 Rocket 3.8 18:43:29 10° N 18:46:59 29° ENE 18:49:14 17° ESE
Meteor PRIRODA 3.8 18:46:02 10° S 18:49:18 61° WSW 18:52:34 10° NNW
Cosmos 1464 Rocket 4.2 18:43:26 10° SSE 18:49:29 50° E 18:55:35 10° NNE
ATLAS 2AS CENTAUR R/B 4.5 18:44:54 10° WNW 18:51:01 29° NNW 18:56:57 10° NE
Cosmos 1125 Rocket 3.6 18:45:54 10° NNW 18:51:01 56° ENE 18:55:24 14° SE
Cosmos 1842 3.0 18:48:32 10° N 18:52:10 89° WSW 18:55:47 10° S
SL-16 R/B 3.9 18:53:32 13° E 18:53:32 13° E 18:55:10 10° ENE
Cosmos 1536 2.9 18:50:32 10° S 18:54:12 48° E 18:57:55 10° NNE
USA 59 Rocket 0.8 18:50:25 10° NW 18:54:12 52° SW 18:59:24 10° SSE
Okean 3 Rocket 3.6 18:50:19 10° S 18:54:40 55° E 18:59:02 10° NNE
Cosmos 1707 2.4 18:52:27 10° N 18:56:02 84° E 18:59:34 10° S
COSMOS 2428 2.9 18:50:26 10° SSW 18:56:10 81° WNW 19:01:56 10° NNE
Cosmos 1515 Rocket 3.5 18:51:58 10° N 18:56:17 62° ENE 19:00:35 10° SSE
Okean O Rocket 2.0 18:57:42 17° SE 19:00:51 45° ENE 19:05:05 10° N
Feng Yun 1-1 Rocket 4.3 18:56:04 10° SSE 19:01:50 73° ENE 19:07:44 10° NNW
SL-14 R/B 4.3 19:01:35 10° NNE 19:04:45 25° ENE 19:05:27 23° E
Cosmos 2278 Rocket 2.4 19:01:22 10° NNW 19:07:02 75° WSW 19:12:39 10° SSE
USA 306 2.9 19:05:31 10° W 19:08:39 56° NNW 19:11:32 15° ENE
Meteor 1-13 Rocket 4.3 19:03:41 10° N 19:09:34 70° ENE 19:14:59 12° SSE
CZ-4 R/B 2.0 19:06:06 10° S 19:09:50 54° W 19:13:41 10° NNW
Meteor 2-9 Rocket 4.3 19:05:34 10° SSE 19:10:39 48° E 19:15:52 10° NNE
PSLV R/B 4.2 19:09:57 29° ESE 19:10:54 35° ENE 19:14:09 10° N
Cosmos 2034 Rocket 4.2 19:05:49 10° SSE 19:11:44 49° E 19:17:38 10° NNE
CZ-4B R/B 3.2 19:07:45 10° SSE 19:13:13 89° WSW 19:18:38 10° NNW
Cosmos 1500 Rocket 4.0 19:10:44 18° SSE 19:13:30 39° E 19:17:34 10° NNE
Cosmos 1766 Rocket 4.5 19:10:11 10° SSW 19:14:25 51° WNW 19:18:43 10° N
Cosmos 1072 Rocket 4.5 19:08:52 10° S 19:15:16 81° E 19:21:41 10° N
Resurs 01 Rocket 1.7 19:10:55 10° S 19:15:20 77° WSW 19:19:48 10° NNW
NOSS 3-3 (C) 4.1 19:11:23 10° S 19:16:18 38° ESE 19:21:56 10° NE
Helios 1A 3.6 19:12:21 10° N 19:16:21 56° WNW 19:20:19 10° SSW
USA 290 3.8 19:14:16 10° NW 19:17:18 35° WSW 19:20:16 10° S
Cosmos 2228 Rocket 4.5 19:13:50 10° NNE 19:17:24 22° ENE 19:17:55 21° ENE
Meteor 2-10 4.1 19:11:58 10° S 19:17:30 69° E 19:23:12 10° NNE
GEOS 3 Rocket 4.1 19:13:39 13° SSE 19:18:11 56° SW 19:23:18 10° NW
Meteor 1-23 Rocket 4.4 19:12:56 10° N 19:18:27 51° ENE 19:21:41 24° SE
Cosmos 1743 Rocket 4.1 19:19:19 31° ESE 19:20:14 34° E 19:24:10 10° NNE
USA 186 2.6 19:17:45 11° S 19:20:42 51° W 19:23:52 10° NNW
MOS 1-B 4.3 19:17:39 12° SSE 19:23:05 86° ENE 19:28:55 10° NNW
SPOT 5 3.1 19:22:14 31° ESE 19:23:52 43° ENE 19:28:05 10° N
Okean-O 2.9 19:23:04 32° ESE 19:24:38 46° ENE 19:28:51 10° N
USA 267 4.0 19:21:02 13° ENE 19:26:31 45° N 19:32:41 10° WNW
Cosmos 2208 Rocket 4.1 19:21:32 10° S 19:26:38 54° ESE 19:31:50 10° NNE
Cosmos 1408 Rocket 3.4 19:24:04 10° S 19:28:25 73° E 19:32:50 10° NNE
CZ-4B R/B 4.4 19:26:27 10° SSW 19:30:00 35° W 19:33:45 10° NNW
ISS -3.9 19:27:02 10° WSW 19:30:22 67° SSE 19:30:43 60° ESE
NOSS 3-3 (A) 3.8 19:25:13 10° SSW 19:30:22 50° ESE 19:36:23 10° NE
MOS 1 4.3 19:31:48 27° SE 19:34:56 65° ENE 19:40:34 10° N
Cosmos 2237 Rocket 2.1 19:29:30 10° SSW 19:35:08 88° ESE 19:40:48 10° NNE
CSL-04 Rocket 4.0 19:31:45 10° S 19:37:04 65° WSW 19:42:22 10° NNW
Aureole 3 Rocket 3.7 19:30:46 10° S 19:37:33 66° E 19:42:22 10° NNE
Cosmos 1607 4.5 19:32:24 10° S 19:38:11 36° ESE 19:43:59 10° NE
Cosmos 2297 4.2 19:40:09 10° NNW 19:45:31 43° NE 19:47:04 35° E
IKONOS-2 4.4 19:42:04 10° NNE 19:46:14 82° WNW 19:50:22 10° SSW
Meteor 1-11 Rocket 3.8 19:40:58 10° SSW 19:46:35 78° WNW 19:52:09 10° N
MOS 1 Rocket 3.6 19:45:39 41° SE 19:47:08 57° ENE 19:52:20 10° N
Spot 2 Rocket 4.1 19:50:59 36° E 19:51:29 37° ENE 19:56:05 10° N
Cosmos 158 Rocket 3.8 19:47:07 10° SSW 19:51:59 82° WNW 19:56:54 10° NNE
ATLAS CENTAUR R/B 1.1 19:48:43 10° SW 19:52:17 77° NW 19:54:53 19° NE
NOSS 3-4 (A) 4.1 19:47:32 10° NW 19:54:05 56° NE 19:57:11 34° E
NOSS 3-4 (C) 4.1 19:47:40 10° NW 19:54:11 56° NE 19:57:17 34° E
Cosmos 1805 Rocket 3.4 19:52:47 35° S 19:54:32 88° ESE 19:58:55 10° N
SL-24 R/B 4.3 20:01:55 47° S 20:03:22 87° E 20:08:13 10° N
Cosmos 2369 Rocket 2.6 19:58:38 10° NNW 20:04:10 47° NE 20:05:11 43° E
Cosmos 1980 4.3 19:59:14 10° SW 20:04:48 57° WNW 20:10:26 10° NNE
Cosmos 1862 Rocket 4.1 20:02:49 10° N 20:06:32 45° NE 20:06:32 45° NE
Meteor 1-21 4.2 20:02:50 10° N 20:08:38 85° E 20:10:23 48° SSE
Sich 1 3.4 20:07:33 27° SSW 20:09:47 61° WNW 20:14:04 10° N
Cosmos 1943 Rocket 3.4 20:05:55 10° NW 20:10:55 36° WSW 20:14:05 20° SSW
Cosmos 1707 Rocket 3.8 20:07:08 10° N 20:11:05 57° NE 20:11:05 57° NE
DELTA 2 DEB (DPAF) 3.8 20:07:42 10° NNE 20:11:47 85° NNE 20:11:47 85° NNE
Terra 1.7 20:13:52 66° ENE 20:13:52 66° ENE 20:18:33 10° N
ERS-1 Rocket 2.8 20:14:03 68° SE 20:14:38 78° ENE 20:19:41 10° NNW
ACS3 Solar Sail 2.5 20:09:36 16° S 20:14:42 53° W 20:20:59 10° NNW
Cosmos 2298 Rocket 4.4 20:09:36 10° NNW 20:14:50 60° WSW 20:16:27 41° SSW
Cosmos 2150 Rocket 4.4 20:11:27 10° NNW 20:16:31 57° WSW 20:17:57 42° SSW
Cosmos 1975 3.4 20:18:58 49° N 20:18:58 49° N 20:21:55 10° N
Cosmos 1805 4.3 20:21:35 38° W 20:22:05 40° WNW 20:25:34 10° N
Cosmos 2026 Rocket 4.2 20:16:54 10° NNW 20:23:05 67° W 20:25:51 34° SSW
Cosmos 1092 Rocket 4.2 20:17:17 10° NNW 20:23:35 69° W 20:26:28 34° SSW
Ariane Rocket 3.1 20:24:22 58° ENE 20:24:22 58° ENE 20:29:10 10° N
Cosmos 2266 Rocket 4.5 20:19:05 10° N 20:25:00 42° ENE 20:25:07 42° ENE
Meteor 2-12 Rocket 4.5 20:20:46 10° NNW 20:26:56 76° W 20:28:55 45° S
IRS-1A Rocket 4.3 20:26:28 53° S 20:27:53 77° WSW 20:33:37 10° NNW
Okean 3 4.2 20:29:44 10° N 20:32:44 46° N 20:32:44 46° N
SL-16 R/B 2.0 20:35:16 79° SSE 20:35:32 82° ESE 20:41:14 10° NNE
Okean O Rocket 3.8 20:35:02 15° SW 20:37:18 22° W 20:40:47 10° NW
Cosmos 1634 Rocket 4.1 20:36:32 35° SSW 20:39:22 75° W 20:45:44 10° N
Cosmos 1656 Rocket 3.6 20:35:22 10° NNW 20:41:02 75° WSW 20:41:19 73° SW
USA 306 4.4 20:38:24 10° WNW 20:40:35 28° NW 20:40:35 28° NW
ATLAS 2AS CENTAUR R/B 4.5 20:38:36 10° NW 20:44:11 24° N 20:49:08 12° ENE
IRS-1C Rocket 4.4 20:45:02 56° SW 20:45:33 59° WSW 20:50:47 10° NNW
Cosmos 773 Rocket 4.4 20:45:39 33° SW 20:47:53 60° WNW 20:53:09 10° NNE
Okean 1-7 4.3 20:46:04 10° N 20:48:39 35° N 20:48:39 35° N
Cosmos 2263 4.2 20:46:29 10° NNW 20:51:55 74° NNE 20:51:55 74° NNE
Cosmos 2228 Rocket 4.1 20:51:24 10° NNW 20:55:20 45° WNW 20:55:20 45° WNW
SPOT 3 Rocket 3.8 21:00:55 65° NW 21:00:55 65° NW 21:05:27 10° NNW
Cosmos 2142 Rocket 4.3 21:02:36 85° W 21:02:37 85° W 21:08:49 10° N
USA 267 3.3 21:08:22 65° ENE 21:09:03 70° NNE 21:15:34 10° NW
Cosmos 1655 Rocket 4.3 21:05:03 10° N 21:10:37 56° NE 21:10:37 56° NE
Cosmos 2237 Rocket 4.5 21:15:39 10° W 21:19:58 22° NW 21:24:17 10° N
Cosmos 2279 Rocket 4.5 21:20:00 50° WSW 21:21:01 55° WNW 21:27:08 10° N
Cosmos 1607 4.5 21:18:51 10° SW 21:25:13 59° NW 21:31:35 10° NE
ATLAS CENTAUR R/B 4.1 21:27:59 10° WNW 21:35:08 - NNE 21:29:51 16° NW
NOSS 3-4 (A) 4.4 21:38:28 10° NW 21:44:37 46° WSW 21:44:37 46° WSW
NOSS 3-4 (C) 4.4 21:38:34 10° NW 21:44:43 46° WSW 21:44:43 46° WSW
Cosmos 2369 Rocket 3.6 21:42:57 10° NW 21:46:58 31° W 21:46:58 31° W
Terra 4.2 21:52:34 17° W 21:52:34 17° W 21:54:59 10° NW
Cosmos 1980 Rocket 4.4 22:06:28 10° N 22:09:47 16° NE 22:10:31 15° NE
SL-16 R/B 4.2 22:17:00 15° W 22:20:19 23° NW 22:24:50 10° N
ATLAS 2AS CENTAUR R/B 3.5 22:30:18 10° NW 22:36:31 44° NNE 22:36:31 44° NNE
Cosmos 1697 Rocket 4.3 22:49:14 10° NNW 22:52:29 31° N 22:52:29 31° N
Cosmos 2344 4.1 23:20:20 10° NW 23:27:14 63° W 23:27:14 63° W
